Powrót do katalogu

QIANFAN-192

AktywnyŁącznośćPO
NORAD 69410·PAYLOAD·🇨🇳 China

Wystrzelony Jun 5, 2026 z Wenchang Space Launch Site

Loading…

Następne Przeloty (najbliższe 24 godziny)

TLE

ŚwieżeSource: Space-Track

Epoka: Sep 14, 2026, 22:11 UTC

1 69410U 26125K   26257.92476578  .00000024  00000-0  18278-4 0  9992
2 69410  88.9888 270.8878 0002041 106.5198 253.6177 13.51030140 14068

Śledź QIANFAN-192 w czasie rzeczywistym z AllMySat

Download on the App Store